Year,Month,Day,Hour,Minute,Value (Times are PST for windspeed in km/hr)
2007,11,11,00,00,3.10
2007,11,11,00,01,7.00
2007,11,11,00,02,4.90
2007,11,11,00,03,5.50
2007,11,11,00,04,5.90
2007,11,11,00,05,3.20
2007,11,11,00,06,5.60
2007,11,11,00,07,1.80
2007,11,11,00,08,5.00
2007,11,11,00,09,2.50
2007,11,11,00,10,2.90
2007,11,11,00,11,2.80
2007,11,11,00,12,3.90
2007,11,11,00,13,3.70
2007,11,11,00,14,3.20
2007,11,11,00,15,3.50
2007,11,11,00,16,3.50
2007,11,11,00,17,4.90
2007,11,11,00,18,4.40
2007,11,11,00,19,2.80
2007,11,11,00,20,2.70
2007,11,11,00,21,2.50
2007,11,11,00,22,3.10
2007,11,11,00,23,6.00
2007,11,11,00,24,4.80
2007,11,11,00,25,1.30
2007,11,11,00,26,0.00
2007,11,11,00,27,0.80
2007,11,11,00,28,2.70
2007,11,11,00,29,0.50
2007,11,11,00,30,3.90
2007,11,11,00,31,3.40
2007,11,11,00,32,1.40
2007,11,11,00,33,5.20
2007,11,11,00,34,5.70
2007,11,11,00,35,4.70
2007,11,11,00,36,1.70
2007,11,11,00,37,0.00
2007,11,11,00,38,0.80
2007,11,11,00,39,0.30
2007,11,11,00,40,1.00
2007,11,11,00,41,1.70
2007,11,11,00,42,1.50
2007,11,11,00,43,2.80
2007,11,11,00,44,3.40
2007,11,11,00,45,4.80
2007,11,11,00,46,4.70
2007,11,11,00,47,5.00
2007,11,11,00,48,1.60
2007,11,11,00,49,0.10
2007,11,11,00,50,0.00
2007,11,11,00,51,0.00
2007,11,11,00,52,1.80
2007,11,11,00,53,3.00
2007,11,11,00,54,0.30
2007,11,11,00,55,0.20
2007,11,11,00,56,0.00
2007,11,11,00,57,0.00
2007,11,11,00,58,0.00
2007,11,11,00,59,1.10
2007,11,11,01,00,0.20
2007,11,11,01,01,0.00
2007,11,11,01,02,0.00
2007,11,11,01,03,1.80
2007,11,11,01,04,2.30
2007,11,11,01,05,2.70
2007,11,11,01,06,1.00
2007,11,11,01,07,0.00
2007,11,11,01,08,0.20
2007,11,11,01,09,0.10
2007,11,11,01,10,0.00
2007,11,11,01,11,1.50
2007,11,11,01,12,0.80
2007,11,11,01,13,0.10
2007,11,11,01,14,0.00
2007,11,11,01,15,1.20
2007,11,11,01,16,4.60
2007,11,11,01,17,1.00
2007,11,11,01,18,3.40
2007,11,11,01,19,0.20
2007,11,11,01,20,1.20
2007,11,11,01,21,2.00
2007,11,11,01,22,1.50
2007,11,11,01,23,1.20
2007,11,11,01,24,4.50
2007,11,11,01,25,2.60
2007,11,11,01,26,0.10
2007,11,11,01,27,1.80
2007,11,11,01,28,0.80
2007,11,11,01,29,3.40
2007,11,11,01,30,2.70
2007,11,11,01,31,1.10
2007,11,11,01,32,0.80
2007,11,11,01,33,0.00
2007,11,11,01,34,5.90
2007,11,11,01,35,5.90
2007,11,11,01,36,1.80
2007,11,11,01,37,2.40
2007,11,11,01,38,2.10
2007,11,11,01,39,0.40
2007,11,11,01,40,2.10
2007,11,11,01,41,3.10
2007,11,11,01,42,0.60
2007,11,11,01,43,1.70
2007,11,11,01,44,2.40
2007,11,11,01,45,0.10
2007,11,11,01,46,0.10
2007,11,11,01,47,0.30
2007,11,11,01,48,0.70
2007,11,11,01,49,2.70
2007,11,11,01,50,4.30
2007,11,11,01,51,0.40
2007,11,11,01,52,2.90
2007,11,11,01,53,2.30
2007,11,11,01,54,2.40
2007,11,11,01,55,2.20
2007,11,11,01,56,0.00
2007,11,11,01,57,0.00
2007,11,11,01,58,0.80
2007,11,11,01,59,5.50
2007,11,11,02,00,3.40
2007,11,11,02,01,0.60
2007,11,11,02,02,2.80
2007,11,11,02,03,2.40
2007,11,11,02,04,0.10
2007,11,11,02,05,0.00
2007,11,11,02,06,0.00
2007,11,11,02,07,0.60
2007,11,11,02,08,2.40
2007,11,11,02,09,1.00
2007,11,11,02,10,2.60
2007,11,11,02,11,2.10
2007,11,11,02,12,2.70
2007,11,11,02,13,4.40
2007,11,11,02,14,9.10
2007,11,11,02,15,4.30
2007,11,11,02,16,4.50
2007,11,11,02,17,1.50
2007,11,11,02,18,5.20
2007,11,11,02,19,3.10
2007,11,11,02,20,3.80
2007,11,11,02,21,1.90
2007,11,11,02,22,2.30
2007,11,11,02,23,2.20
2007,11,11,02,24,4.10
2007,11,11,02,25,3.10
2007,11,11,02,26,1.90
2007,11,11,02,27,0.70
2007,11,11,02,28,2.60
2007,11,11,02,29,4.10
2007,11,11,02,30,0.40
2007,11,11,02,31,0.00
2007,11,11,02,32,0.00
2007,11,11,02,33,0.40
2007,11,11,02,34,4.20
2007,11,11,02,35,2.10
2007,11,11,02,36,3.70
2007,11,11,02,37,2.70
2007,11,11,02,38,3.10
2007,11,11,02,39,3.10
2007,11,11,02,40,2.90
2007,11,11,02,41,0.90
2007,11,11,02,42,0.80
2007,11,11,02,43,1.50
2007,11,11,02,44,1.00
2007,11,11,02,45,2.90
2007,11,11,02,46,2.80
2007,11,11,02,47,1.80
2007,11,11,02,48,1.60
2007,11,11,02,49,1.30
2007,11,11,02,50,2.30
2007,11,11,02,51,4.40
2007,11,11,02,52,3.10
2007,11,11,02,53,2.20
2007,11,11,02,54,2.30
2007,11,11,02,55,1.80
2007,11,11,02,56,3.30
2007,11,11,02,57,2.60
2007,11,11,02,58,3.50
2007,11,11,02,59,3.70
2007,11,11,03,00,3.00
2007,11,11,03,01,3.20
2007,11,11,03,02,0.30
2007,11,11,03,03,1.70
2007,11,11,03,04,0.70
2007,11,11,03,05,1.80
2007,11,11,03,06,0.70
2007,11,11,03,07,1.90
2007,11,11,03,08,2.10
2007,11,11,03,09,2.20
2007,11,11,03,10,3.80
2007,11,11,03,11,4.60
2007,11,11,03,12,5.20
2007,11,11,03,13,4.30
2007,11,11,03,14,1.90
2007,11,11,03,15,1.20
2007,11,11,03,16,1.10
2007,11,11,03,17,3.60
2007,11,11,03,18,0.90
2007,11,11,03,19,1.10
2007,11,11,03,20,3.10
2007,11,11,03,21,1.80
2007,11,11,03,22,2.10
2007,11,11,03,23,2.10
2007,11,11,03,24,0.60
2007,11,11,03,25,2.60
2007,11,11,03,26,1.40
2007,11,11,03,27,1.10
2007,11,11,03,28,1.80
2007,11,11,03,29,1.50
2007,11,11,03,30,2.30
2007,11,11,03,31,4.70
2007,11,11,03,32,3.10
2007,11,11,03,33,3.60
2007,11,11,03,34,2.40
2007,11,11,03,35,3.70
2007,11,11,03,36,3.80
2007,11,11,03,37,1.90
2007,11,11,03,38,0.70
2007,11,11,03,39,5.70
2007,11,11,03,40,3.90
2007,11,11,03,41,3.70
2007,11,11,03,42,2.70
2007,11,11,03,43,1.50
2007,11,11,03,44,1.30
2007,11,11,03,45,1.50
2007,11,11,03,46,2.90
2007,11,11,03,47,0.30
2007,11,11,03,48,0.10
2007,11,11,03,49,0.10
2007,11,11,03,50,1.00
2007,11,11,03,51,1.10
2007,11,11,03,52,0.00
2007,11,11,03,53,1.40
2007,11,11,03,54,1.70
2007,11,11,03,55,1.10
2007,11,11,03,56,0.00
2007,11,11,03,57,0.00
2007,11,11,03,58,0.00
2007,11,11,03,59,0.00
2007,11,11,04,00,0.00
2007,11,11,04,01,0.10
2007,11,11,04,02,1.80
2007,11,11,04,03,1.90
2007,11,11,04,04,0.00
2007,11,11,04,05,0.10
2007,11,11,04,06,0.10
2007,11,11,04,07,1.40
2007,11,11,04,08,1.30
2007,11,11,04,09,0.70
2007,11,11,04,10,3.00
2007,11,11,04,11,1.40
2007,11,11,04,12,1.70
2007,11,11,04,13,1.40
2007,11,11,04,14,2.20
2007,11,11,04,15,0.20
2007,11,11,04,16,0.00
2007,11,11,04,17,0.80
2007,11,11,04,18,1.50
2007,11,11,04,19,1.80
2007,11,11,04,20,0.20
2007,11,11,04,21,0.00
2007,11,11,04,22,2.10
2007,11,11,04,23,3.50
2007,11,11,04,24,4.70
2007,11,11,04,25,2.70
2007,11,11,04,26,3.20
2007,11,11,04,27,3.00
2007,11,11,04,28,2.60
2007,11,11,04,29,0.60
2007,11,11,04,30,0.10
2007,11,11,04,31,0.40
2007,11,11,04,32,3.30
2007,11,11,04,33,0.00
2007,11,11,04,34,0.00
2007,11,11,04,35,0.00
2007,11,11,04,36,0.10
2007,11,11,04,37,0.80
2007,11,11,04,38,0.00
2007,11,11,04,39,0.00
2007,11,11,04,40,0.00
2007,11,11,04,41,0.40
2007,11,11,04,42,1.80
2007,11,11,04,43,0.10
2007,11,11,04,44,0.20
2007,11,11,04,45,1.10
2007,11,11,04,46,0.50
2007,11,11,04,47,2.10
2007,11,11,04,48,1.50
2007,11,11,04,49,1.20
2007,11,11,04,50,1.50
2007,11,11,04,51,0.00
2007,11,11,04,52,0.00
2007,11,11,04,53,0.00
2007,11,11,04,54,0.00
2007,11,11,04,55,0.00
2007,11,11,04,56,0.00
2007,11,11,04,57,0.00
2007,11,11,04,58,0.00
2007,11,11,04,59,0.10
2007,11,11,05,00,1.60
2007,11,11,05,01,1.20
2007,11,11,05,02,0.00
2007,11,11,05,03,0.00
2007,11,11,05,04,0.00
2007,11,11,05,05,0.00
2007,11,11,05,06,0.20
2007,11,11,05,07,0.00
2007,11,11,05,08,0.00
2007,11,11,05,09,0.10
2007,11,11,05,10,0.50
2007,11,11,05,11,0.00
2007,11,11,05,12,0.00
2007,11,11,05,13,0.00
2007,11,11,05,14,0.70
2007,11,11,05,15,0.00
2007,11,11,05,16,0.00
2007,11,11,05,17,0.20
2007,11,11,05,18,1.80
2007,11,11,05,19,1.50
2007,11,11,05,20,0.30
2007,11,11,05,21,0.10
2007,11,11,05,22,0.00
2007,11,11,05,23,0.00
2007,11,11,05,24,0.00
2007,11,11,05,25,0.00
2007,11,11,05,26,0.00
2007,11,11,05,27,0.10
2007,11,11,05,28,0.00
2007,11,11,05,29,0.00
2007,11,11,05,30,0.20
2007,11,11,05,31,0.10
2007,11,11,05,32,1.20
2007,11,11,05,33,1.30
2007,11,11,05,34,1.50
2007,11,11,05,35,0.90
2007,11,11,05,36,1.70
2007,11,11,05,37,1.60
2007,11,11,05,38,1.50
2007,11,11,05,39,3.10
2007,11,11,05,40,1.50
2007,11,11,05,41,0.70
2007,11,11,05,42,2.70
2007,11,11,05,43,1.40
2007,11,11,05,44,0.80
2007,11,11,05,45,1.80
2007,11,11,05,46,1.90
2007,11,11,05,47,2.50
2007,11,11,05,48,1.90
2007,11,11,05,49,0.20
2007,11,11,05,50,2.00
2007,11,11,05,51,5.30
2007,11,11,05,52,1.80
2007,11,11,05,53,2.40
2007,11,11,05,54,6.40
2007,11,11,05,55,5.20
2007,11,11,05,56,4.40
2007,11,11,05,57,5.70
2007,11,11,05,58,4.10
2007,11,11,05,59,6.80
2007,11,11,06,00,9.00
2007,11,11,06,01,4.30
2007,11,11,06,02,3.20
2007,11,11,06,03,1.10
2007,11,11,06,04,1.90
2007,11,11,06,05,5.40
2007,11,11,06,06,5.10
2007,11,11,06,07,8.00
2007,11,11,06,08,4.70
2007,11,11,06,09,11.90
2007,11,11,06,10,8.40
2007,11,11,06,11,6.10
2007,11,11,06,12,4.50
2007,11,11,06,13,7.70
2007,11,11,06,14,6.40
2007,11,11,06,15,8.00
2007,11,11,06,16,7.40
2007,11,11,06,17,8.30
2007,11,11,06,18,7.60
2007,11,11,06,19,5.40
2007,11,11,06,20,7.50
2007,11,11,06,21,5.50
2007,11,11,06,22,4.10
2007,11,11,06,23,7.10
2007,11,11,06,24,4.90
2007,11,11,06,25,6.20
2007,11,11,06,26,4.40
2007,11,11,06,27,4.70
2007,11,11,06,28,3.70
2007,11,11,06,29,6.10
2007,11,11,06,30,2.20
2007,11,11,06,31,2.30
2007,11,11,06,32,5.90
2007,11,11,06,33,6.40
2007,11,11,06,34,7.00
2007,11,11,06,35,0.40
2007,11,11,06,36,1.40
2007,11,11,06,37,1.70
2007,11,11,06,38,2.00
2007,11,11,06,39,3.50
2007,11,11,06,40,3.60
2007,11,11,06,41,7.60
2007,11,11,06,42,6.90
2007,11,11,06,43,6.90
2007,11,11,06,44,8.10
2007,11,11,06,45,7.50
2007,11,11,06,46,4.10
2007,11,11,06,47,5.50
2007,11,11,06,48,5.70
2007,11,11,06,49,3.10
2007,11,11,06,50,4.50
2007,11,11,06,51,3.20
2007,11,11,06,52,4.10
2007,11,11,06,53,3.30
2007,11,11,06,54,3.60
2007,11,11,06,55,5.40
2007,11,11,06,56,2.90
2007,11,11,06,57,4.20
2007,11,11,06,58,8.10
2007,11,11,06,59,5.80
2007,11,11,07,00,4.80
2007,11,11,07,01,8.40
2007,11,11,07,02,5.60
2007,11,11,07,03,3.10
2007,11,11,07,04,3.80
2007,11,11,07,05,3.90
2007,11,11,07,06,5.90
2007,11,11,07,07,3.20
2007,11,11,07,08,2.80
2007,11,11,07,09,1.60
2007,11,11,07,10,5.70
2007,11,11,07,11,1.90
2007,11,11,07,12,2.50
2007,11,11,07,13,0.00
2007,11,11,07,14,1.50
2007,11,11,07,15,2.70
2007,11,11,07,16,1.80
2007,11,11,07,17,1.20
2007,11,11,07,18,2.20
2007,11,11,07,19,1.70
2007,11,11,07,20,0.20
2007,11,11,07,21,1.80
2007,11,11,07,22,2.10
2007,11,11,07,23,1.60
2007,11,11,07,24,0.00
2007,11,11,07,25,0.00
2007,11,11,07,26,0.00
2007,11,11,07,27,0.00
2007,11,11,07,28,0.60
2007,11,11,07,29,1.60
2007,11,11,07,30,4.20
2007,11,11,07,31,1.90
2007,11,11,07,32,0.60
2007,11,11,07,33,0.40
2007,11,11,07,34,1.40
2007,11,11,07,35,2.10
2007,11,11,07,36,2.00
2007,11,11,07,37,1.50
2007,11,11,07,38,1.60
2007,11,11,07,39,2.30
2007,11,11,07,40,2.30
2007,11,11,07,41,2.30
2007,11,11,07,42,1.30
2007,11,11,07,43,0.50
2007,11,11,07,44,0.50
2007,11,11,07,45,1.90
2007,11,11,07,46,2.00
2007,11,11,07,47,0.10
2007,11,11,07,48,1.50
2007,11,11,07,49,0.60
2007,11,11,07,50,0.30
2007,11,11,07,51,1.20
2007,11,11,07,52,2.80
2007,11,11,07,53,0.80
2007,11,11,07,54,0.90
2007,11,11,07,55,1.80
2007,11,11,07,56,3.50
2007,11,11,07,57,2.20
2007,11,11,07,58,3.50
2007,11,11,07,59,1.50
2007,11,11,08,00,0.10
2007,11,11,08,01,0.20
2007,11,11,08,02,1.20
2007,11,11,08,03,0.00
2007,11,11,08,04,0.50
2007,11,11,08,05,1.80
2007,11,11,08,06,0.30
2007,11,11,08,07,0.20
2007,11,11,08,08,0.80
2007,11,11,08,09,0.70
2007,11,11,08,10,4.50
2007,11,11,08,11,3.10
2007,11,11,08,12,1.80
2007,11,11,08,13,0.30
2007,11,11,08,14,1.20
2007,11,11,08,15,1.80
2007,11,11,08,16,0.80
2007,11,11,08,17,2.80
2007,11,11,08,18,0.40
2007,11,11,08,19,2.10
2007,11,11,08,20,3.00
2007,11,11,08,21,1.40
2007,11,11,08,22,1.70
2007,11,11,08,23,4.70
2007,11,11,08,24,4.20
2007,11,11,08,25,2.00
2007,11,11,08,26,2.80
2007,11,11,08,27,1.80
2007,11,11,08,28,2.50
2007,11,11,08,29,2.50
2007,11,11,08,30,0.20
2007,11,11,08,31,0.20
2007,11,11,08,32,0.60
2007,11,11,08,33,2.00
2007,11,11,08,34,0.00
2007,11,11,08,35,0.30
2007,11,11,08,36,0.30
2007,11,11,08,37,1.50
2007,11,11,08,38,0.00
2007,11,11,08,39,0.00
2007,11,11,08,40,0.50
2007,11,11,08,41,1.90
2007,11,11,08,42,0.20
2007,11,11,08,43,0.00
2007,11,11,08,44,0.00
2007,11,11,08,45,0.00
2007,11,11,08,46,0.10
2007,11,11,08,47,0.00
2007,11,11,08,48,0.00
2007,11,11,08,49,0.00
2007,11,11,08,50,0.10
2007,11,11,08,51,0.00
2007,11,11,08,52,0.00
2007,11,11,08,53,0.00
2007,11,11,08,54,0.00
2007,11,11,08,55,0.00
2007,11,11,08,56,0.00
2007,11,11,08,57,0.00
2007,11,11,08,58,0.00
2007,11,11,08,59,0.00
2007,11,11,09,00,0.00
2007,11,11,09,01,0.00
2007,11,11,09,02,0.00
2007,11,11,09,03,1.50
2007,11,11,09,04,0.20
2007,11,11,09,05,0.00
2007,11,11,09,06,0.10
2007,11,11,09,07,1.40
2007,11,11,09,08,1.80
2007,11,11,09,09,0.00
2007,11,11,09,10,2.00
2007,11,11,09,11,2.70
2007,11,11,09,12,1.60
2007,11,11,09,13,0.90
2007,11,11,09,14,1.10
2007,11,11,09,15,5.80
2007,11,11,09,16,1.10
2007,11,11,09,17,1.00
2007,11,11,09,18,5.80
2007,11,11,09,19,2.50
2007,11,11,09,20,1.00
2007,11,11,09,21,1.80
2007,11,11,09,22,2.10
2007,11,11,09,23,1.80
2007,11,11,09,24,5.50
2007,11,11,09,25,4.00
2007,11,11,09,26,2.10
2007,11,11,09,27,1.00
2007,11,11,09,28,3.40
2007,11,11,09,29,3.60
2007,11,11,09,30,5.20
2007,11,11,09,31,4.20
2007,11,11,09,32,2.70
2007,11,11,09,33,2.90
2007,11,11,09,34,3.20
2007,11,11,09,35,2.20
2007,11,11,09,36,10.70
2007,11,11,09,37,8.10
2007,11,11,09,38,4.60
2007,11,11,09,39,2.90
2007,11,11,09,40,3.50
2007,11,11,09,41,4.70
2007,11,11,09,42,4.90
2007,11,11,09,43,3.90
2007,11,11,09,44,8.30
2007,11,11,09,45,6.40
2007,11,11,09,46,4.00
2007,11,11,09,47,5.90
2007,11,11,09,48,6.40
2007,11,11,09,49,5.90
2007,11,11,09,50,5.60
2007,11,11,09,51,5.10
2007,11,11,09,52,6.10
2007,11,11,09,53,5.10
2007,11,11,09,54,11.90
2007,11,11,09,55,5.30
2007,11,11,09,56,3.10
2007,11,11,09,57,6.80
2007,11,11,09,58,7.20
2007,11,11,09,59,5.70
2007,11,11,10,00,5.30
2007,11,11,10,01,3.90
2007,11,11,10,02,11.00
2007,11,11,10,03,4.70
2007,11,11,10,04,6.40
2007,11,11,10,05,2.50
2007,11,11,10,06,3.10
2007,11,11,10,07,5.10
2007,11,11,10,08,4.00
2007,11,11,10,09,1.30
2007,11,11,10,10,5.80
2007,11,11,10,11,5.30
2007,11,11,10,12,5.90
2007,11,11,10,13,4.70
2007,11,11,10,14,3.10
2007,11,11,10,15,3.20
2007,11,11,10,16,2.50
2007,11,11,10,17,7.20
2007,11,11,10,18,5.40
2007,11,11,10,19,2.80
2007,11,11,10,20,3.80
2007,11,11,10,21,3.40
2007,11,11,10,22,2.00
2007,11,11,10,23,1.90
2007,11,11,10,24,4.70
2007,11,11,10,25,9.10
2007,11,11,10,26,8.20
2007,11,11,10,27,6.70
2007,11,11,10,28,2.60
2007,11,11,10,29,2.80
2007,11,11,10,30,11.80
2007,11,11,10,31,11.80
2007,11,11,10,32,9.90
2007,11,11,10,33,6.00
2007,11,11,10,34,4.60
2007,11,11,10,35,3.70
2007,11,11,10,36,4.70
2007,11,11,10,37,6.40
2007,11,11,10,38,13.80
2007,11,11,10,39,10.50
2007,11,11,10,40,10.70
2007,11,11,10,41,3.90
2007,11,11,10,42,1.80
2007,11,11,10,43,6.40
2007,11,11,10,44,8.20
2007,11,11,10,45,12.20
2007,11,11,10,46,7.00
2007,11,11,10,47,5.20
2007,11,11,10,48,4.20
2007,11,11,10,49,5.30
2007,11,11,10,50,5.60
2007,11,11,10,51,9.90
2007,11,11,10,52,10.00
2007,11,11,10,53,6.80
2007,11,11,10,54,11.20
2007,11,11,10,55,12.20
2007,11,11,10,56,6.90
2007,11,11,10,57,6.40
2007,11,11,10,58,7.50
2007,11,11,10,59,11.00
2007,11,11,11,00,9.20
2007,11,11,11,01,7.10
2007,11,11,11,02,9.30
2007,11,11,11,03,5.40
2007,11,11,11,04,6.30
2007,11,11,11,05,6.80
2007,11,11,11,06,12.60
2007,11,11,11,07,7.30
2007,11,11,11,08,5.80
2007,11,11,11,09,4.70
2007,11,11,11,10,4.60
2007,11,11,11,11,12.10
2007,11,11,11,12,9.50
2007,11,11,11,13,10.10
2007,11,11,11,14,7.40
2007,11,11,11,15,5.90
2007,11,11,11,16,6.40
2007,11,11,11,17,7.90
2007,11,11,11,18,9.20
2007,11,11,11,19,11.50
2007,11,11,11,20,5.50
2007,11,11,11,21,9.40
2007,11,11,11,22,12.30
2007,11,11,11,23,9.30
2007,11,11,11,24,5.90
2007,11,11,11,25,11.40
2007,11,11,11,26,6.50
2007,11,11,11,27,4.50
2007,11,11,11,28,10.50
2007,11,11,11,29,7.20
2007,11,11,11,30,8.10
2007,11,11,11,31,3.90
2007,11,11,11,32,6.30
2007,11,11,11,33,12.10
2007,11,11,11,34,11.40
2007,11,11,11,35,3.90
2007,11,11,11,36,3.20
2007,11,11,11,37,2.30
2007,11,11,11,38,3.60
2007,11,11,11,39,3.10
2007,11,11,11,40,4.80
2007,11,11,11,41,9.70
2007,11,11,11,42,3.90
2007,11,11,11,43,3.90
2007,11,11,11,44,4.60
2007,11,11,11,45,6.00
2007,11,11,11,46,5.30
2007,11,11,11,47,5.30
2007,11,11,11,48,6.90
2007,11,11,11,49,9.70
2007,11,11,11,50,9.90
2007,11,11,11,51,7.00
2007,11,11,11,52,9.50
2007,11,11,11,53,5.00
2007,11,11,11,54,10.20
2007,11,11,11,55,4.70
2007,11,11,11,56,1.70
2007,11,11,11,57,8.00
2007,11,11,11,58,6.80
2007,11,11,11,59,5.00
2007,11,11,12,00,9.10
2007,11,11,12,01,4.50
2007,11,11,12,02,8.10
2007,11,11,12,03,11.80
2007,11,11,12,04,5.60
2007,11,11,12,05,4.50
2007,11,11,12,06,7.20
2007,11,11,12,07,8.20
2007,11,11,12,08,7.20
2007,11,11,12,09,6.70
2007,11,11,12,10,3.10
2007,11,11,12,11,7.40
2007,11,11,12,12,6.80
2007,11,11,12,13,3.20
2007,11,11,12,14,2.70
2007,11,11,12,15,7.10
2007,11,11,12,16,5.60
2007,11,11,12,17,5.10
2007,11,11,12,18,6.60
2007,11,11,12,19,7.50
2007,11,11,12,20,5.40
2007,11,11,12,21,11.90
2007,11,11,12,22,6.00
2007,11,11,12,23,6.20
2007,11,11,12,24,7.70
2007,11,11,12,25,9.70
2007,11,11,12,26,6.80
2007,11,11,12,27,11.60
2007,11,11,12,28,7.50
2007,11,11,12,29,9.20
2007,11,11,12,30,12.80
2007,11,11,12,31,9.40
2007,11,11,12,32,10.90
2007,11,11,12,33,11.20
2007,11,11,12,34,4.90
2007,11,11,12,35,7.60
2007,11,11,12,36,4.80
2007,11,11,12,37,8.80
2007,11,11,12,38,8.80
2007,11,11,12,39,4.50
2007,11,11,12,40,9.00
2007,11,11,12,41,8.50
2007,11,11,12,42,6.70
2007,11,11,12,43,8.00
2007,11,11,12,44,9.70
2007,11,11,12,45,9.20
2007,11,11,12,46,12.80
2007,11,11,12,47,10.10
2007,11,11,12,48,8.60
2007,11,11,12,49,7.50
2007,11,11,12,50,7.20
2007,11,11,12,51,12.30
2007,11,11,12,52,10.00
2007,11,11,12,53,15.70
2007,11,11,12,54,8.90
2007,11,11,12,55,4.70
2007,11,11,12,56,7.10
2007,11,11,12,57,4.20
2007,11,11,12,58,6.40
2007,11,11,12,59,4.70
2007,11,11,13,00,10.10
2007,11,11,13,01,6.90
2007,11,11,13,02,5.90
2007,11,11,13,03,11.00
2007,11,11,13,04,5.30
2007,11,11,13,05,2.30
2007,11,11,13,06,6.90
2007,11,11,13,07,6.20
2007,11,11,13,08,3.10
2007,11,11,13,09,3.20
2007,11,11,13,10,2.30
2007,11,11,13,11,5.80
2007,11,11,13,12,2.20
2007,11,11,13,13,1.80
2007,11,11,13,14,5.60
2007,11,11,13,15,5.30
2007,11,11,13,16,9.70
2007,11,11,13,17,4.60
2007,11,11,13,18,6.60
2007,11,11,13,19,9.40
2007,11,11,13,20,6.00
2007,11,11,13,21,4.70
2007,11,11,13,22,1.80
2007,11,11,13,23,5.30
2007,11,11,13,24,3.90
2007,11,11,13,25,5.70
2007,11,11,13,26,5.70
2007,11,11,13,27,5.30
2007,11,11,13,28,4.50
2007,11,11,13,29,6.90
2007,11,11,13,30,8.90
2007,11,11,13,31,7.20
2007,11,11,13,32,4.50
2007,11,11,13,33,5.10
2007,11,11,13,34,3.90
2007,11,11,13,35,9.30
2007,11,11,13,36,6.20
2007,11,11,13,37,6.50
2007,11,11,13,38,8.50
2007,11,11,13,39,9.30
2007,11,11,13,40,7.30
2007,11,11,13,41,7.30
2007,11,11,13,42,8.70
2007,11,11,13,43,5.30
2007,11,11,13,44,7.10
2007,11,11,13,45,4.30
2007,11,11,13,46,4.80
2007,11,11,13,47,8.00
2007,11,11,13,48,7.80
2007,11,11,13,49,4.00
2007,11,11,13,50,6.60
2007,11,11,13,51,11.00
2007,11,11,13,52,6.00
2007,11,11,13,53,3.40
2007,11,11,13,54,7.10
2007,11,11,13,55,7.20
2007,11,11,13,56,11.50
2007,11,11,13,57,9.80
2007,11,11,13,58,6.90
2007,11,11,13,59,5.70
2007,11,11,14,00,6.50
2007,11,11,14,01,6.40
2007,11,11,14,02,7.60
2007,11,11,14,03,6.00
2007,11,11,14,04,10.80
2007,11,11,14,05,6.90
2007,11,11,14,06,12.20
2007,11,11,14,07,11.00
2007,11,11,14,08,9.70
2007,11,11,14,09,8.50
2007,11,11,14,10,9.60
2007,11,11,14,11,8.60
2007,11,11,14,12,10.00
2007,11,11,14,13,10.10
2007,11,11,14,14,7.80
2007,11,11,14,15,8.20
2007,11,11,14,16,11.50
2007,11,11,14,17,5.60
2007,11,11,14,18,3.60
2007,11,11,14,19,4.90
2007,11,11,14,20,4.50
2007,11,11,14,21,9.70
2007,11,11,14,22,13.90
2007,11,11,14,23,6.50
2007,11,11,14,24,11.30
2007,11,11,14,25,8.70
2007,11,11,14,26,13.40
2007,11,11,14,27,6.30
2007,11,11,14,28,6.40
2007,11,11,14,29,7.70
2007,11,11,14,30,8.50
2007,11,11,14,31,12.50
2007,11,11,14,32,10.30
2007,11,11,14,33,9.60
2007,11,11,14,34,9.30
2007,11,11,14,35,7.60
2007,11,11,14,36,11.00
2007,11,11,14,37,6.20
2007,11,11,14,38,4.90
2007,11,11,14,39,6.70
2007,11,11,14,40,7.90
2007,11,11,14,41,10.60
2007,11,11,14,42,2.40
2007,11,11,14,43,6.50
2007,11,11,14,44,5.50
2007,11,11,14,45,8.60
2007,11,11,14,46,2.40
2007,11,11,14,47,5.00
2007,11,11,14,48,8.50
2007,11,11,14,49,11.30
2007,11,11,14,50,8.50
2007,11,11,14,51,11.80
2007,11,11,14,52,4.20
2007,11,11,14,53,6.00
2007,11,11,14,54,8.80
2007,11,11,14,55,9.70
2007,11,11,14,56,4.90
2007,11,11,14,57,8.20
2007,11,11,14,58,7.60
2007,11,11,14,59,4.30
2007,11,11,15,00,4.10
2007,11,11,15,01,7.10
2007,11,11,15,02,6.40
2007,11,11,15,03,6.90
2007,11,11,15,04,7.80
2007,11,11,15,05,6.40
2007,11,11,15,06,6.90
2007,11,11,15,07,9.70
2007,11,11,15,08,7.60
2007,11,11,15,09,5.50
2007,11,11,15,10,8.40
2007,11,11,15,11,6.90
2007,11,11,15,12,10.30
2007,11,11,15,13,8.50
2007,11,11,15,14,7.80
2007,11,11,15,15,11.20
2007,11,11,15,16,7.60
2007,11,11,15,17,10.90
2007,11,11,15,18,12.40
2007,11,11,15,19,7.80
2007,11,11,15,20,10.70
2007,11,11,15,21,5.10
2007,11,11,15,22,8.60
2007,11,11,15,23,5.30
2007,11,11,15,24,7.50
2007,11,11,15,25,6.80
2007,11,11,15,26,6.30
2007,11,11,15,27,6.80
2007,11,11,15,28,12.50
2007,11,11,15,29,7.90
2007,11,11,15,30,4.50
2007,11,11,15,31,11.10
2007,11,11,15,32,7.00
2007,11,11,15,33,10.40
2007,11,11,15,34,5.20
2007,11,11,15,35,12.80
2007,11,11,15,36,6.10
2007,11,11,15,37,6.20
2007,11,11,15,38,7.60
2007,11,11,15,39,6.50
2007,11,11,15,40,14.30
2007,11,11,15,41,9.30
2007,11,11,15,42,5.00
2007,11,11,15,43,8.50
2007,11,11,15,44,8.90
2007,11,11,15,45,7.20
2007,11,11,15,46,4.00
2007,11,11,15,47,7.30
2007,11,11,15,48,8.70
2007,11,11,15,49,6.30
2007,11,11,15,50,10.80
2007,11,11,15,51,10.30
2007,11,11,15,52,9.50
2007,11,11,15,53,7.30
2007,11,11,15,54,13.40
2007,11,11,15,55,10.20
2007,11,11,15,56,8.80
2007,11,11,15,57,10.10
2007,11,11,15,58,4.80
2007,11,11,15,59,6.90
2007,11,11,16,00,6.70
2007,11,11,16,01,9.60
2007,11,11,16,02,7.30
2007,11,11,16,03,9.80
2007,11,11,16,04,6.40
2007,11,11,16,05,10.50
2007,11,11,16,06,6.00
2007,11,11,16,07,4.50
2007,11,11,16,08,4.80
2007,11,11,16,09,3.80
2007,11,11,16,10,5.40
2007,11,11,16,11,1.90
2007,11,11,16,12,9.00
2007,11,11,16,13,8.00
2007,11,11,16,14,5.10
2007,11,11,16,15,3.00
2007,11,11,16,16,2.50
2007,11,11,16,17,0.20
2007,11,11,16,18,8.10
2007,11,11,16,19,4.40
2007,11,11,16,20,3.90
2007,11,11,16,21,3.50
2007,11,11,16,22,5.80
2007,11,11,16,23,4.50
2007,11,11,16,24,4.10
2007,11,11,16,25,4.90
2007,11,11,16,26,2.10
2007,11,11,16,27,4.30
2007,11,11,16,28,3.60
2007,11,11,16,29,3.80
2007,11,11,16,30,5.70
2007,11,11,16,31,3.90
2007,11,11,16,32,6.70
2007,11,11,16,33,5.50
2007,11,11,16,34,3.90
2007,11,11,16,35,5.90
2007,11,11,16,36,6.60
2007,11,11,16,37,5.40
2007,11,11,16,38,6.40
2007,11,11,16,39,9.40
2007,11,11,16,40,3.10
2007,11,11,16,41,4.10
2007,11,11,16,42,5.40
2007,11,11,16,43,3.50
2007,11,11,16,44,4.00
2007,11,11,16,45,2.30
2007,11,11,16,46,4.30
2007,11,11,16,47,5.00
2007,11,11,16,48,5.50
2007,11,11,16,49,7.10
2007,11,11,16,50,6.70
2007,11,11,16,51,7.20
2007,11,11,16,52,4.10
2007,11,11,16,53,3.70
2007,11,11,16,54,4.80
2007,11,11,16,55,5.20
2007,11,11,16,56,9.00
2007,11,11,16,57,6.80
2007,11,11,16,58,5.70
2007,11,11,16,59,6.60
2007,11,11,17,00,5.30
2007,11,11,17,01,9.40
2007,11,11,17,02,8.20
2007,11,11,17,03,7.00
2007,11,11,17,04,9.70
2007,11,11,17,05,4.30
2007,11,11,17,06,8.20
2007,11,11,17,07,3.50
2007,11,11,17,08,3.70
2007,11,11,17,09,6.30
2007,11,11,17,10,8.50
2007,11,11,17,11,5.80
2007,11,11,17,12,5.70
2007,11,11,17,13,6.60
2007,11,11,17,14,8.70
2007,11,11,17,15,4.20
2007,11,11,17,16,4.60
2007,11,11,17,17,8.00
2007,11,11,17,18,7.70
2007,11,11,17,19,6.70
2007,11,11,17,20,8.30
2007,11,11,17,21,8.40
2007,11,11,17,22,8.10
2007,11,11,17,23,5.80
2007,11,11,17,24,4.70
2007,11,11,17,25,5.60
2007,11,11,17,26,7.60
2007,11,11,17,27,7.40
2007,11,11,17,28,4.00
2007,11,11,17,29,7.70
2007,11,11,17,30,5.50
2007,11,11,17,31,8.50
2007,11,11,17,32,8.00
2007,11,11,17,33,8.00
2007,11,11,17,34,9.80
2007,11,11,17,35,5.60
2007,11,11,17,36,7.70
2007,11,11,17,37,7.30
2007,11,11,17,38,5.50
2007,11,11,17,39,9.90
2007,11,11,17,40,5.20
2007,11,11,17,41,3.60
2007,11,11,17,42,5.20
2007,11,11,17,43,3.70
2007,11,11,17,44,5.50
2007,11,11,17,45,5.20
2007,11,11,17,46,3.90
2007,11,11,17,47,2.80
2007,11,11,17,48,3.80
2007,11,11,17,49,4.40
2007,11,11,17,50,2.10
2007,11,11,17,51,3.00
2007,11,11,17,52,7.90
2007,11,11,17,53,7.90
2007,11,11,17,54,6.80
2007,11,11,17,55,9.10
2007,11,11,17,56,11.90
2007,11,11,17,57,6.70
2007,11,11,17,58,7.20
2007,11,11,17,59,9.10
2007,11,11,18,00,14.80
2007,11,11,18,01,7.50
2007,11,11,18,02,7.30
2007,11,11,18,03,8.70